Flag for Canada Weather past 2 weeks in Quispamsis, New Brunswick, Canada

Now
52 °F

Passing clouds.


Feels Like: 52 °F
Forecast: 53 / 76 °F
Wind: 2 mph from North

Location: Saint John

Current Time: Jul 25, 2014 at 6:51:56 AM

Latest Report: Jul 25, 2014 at 6:00 AM


Visibility: 15 mi

Pressure: 29.86 "Hg

Humidity: 100%

Dew point: 52 °F

Location of QuispamsisLocation

Historic Weather in Quispamsis — Graph

°F

Quispamsis temperature yesterday

Maximum temperature yesterday: 66 °F (at 6:00 PM)
Minimum temperature yesterday: 59 °F (at 1:00 AM)
Average temperature yesterday: 62 °F

Past Weeks' High & Low Weather Summary

 TemperatureHumidityPressure
High81 °F (Jul 19, 3:00 PM)100% (Jul 10, 5:00 AM)30.27 "Hg (Jul 10, 5:00 AM)
Low45 °F (Jul 12, 5:00 AM)34% (Jul 12, 12:00 PM)29.75 "Hg (Jul 24, 5:00 AM)
Average63 °F86%30.02 "Hg
* Reported Jul 10 5:00 AM — Jul 25 5:00 AM, Quispamsis, Weather by CustomWeather, © 2014

Note: Actual official high and low records may vary slightly from our data, if they occured in-between our weather recording intervals... More about our weather records

Advertising

Quispamsis weather history for previous 24 hours

 ConditionsComfort  
Time TempWeatherWind HumidityBarometerVisibility
5:00 AM
Jul 25
52 °FPassing clouds.No wind100%29.85 "Hg15 mi
4:00 AM50 °FFog.2 mph100%29.85 "Hg5 mi
3:00 AM52 °FFog.No wind100%29.83 "Hg5 mi
2:00 AM54 °FFog.2 mph100%29.83 "Hg1 mi
1:00 AM57 °FFog.No wind100%29.83 "Hg1 mi
12:50 AM55 °FFog.No wind100%29.83 "Hg1 mi
12:00 AM57 °FFog.No wind100%29.83 "Hg5 mi
11:00 PM
Jul 24
59 °FFog.No wind100%29.82 "Hg5 mi
10:00 PM61 °FPassing clouds.2 mph100%29.82 "Hg15 mi
9:00 PM64 °FBroken clouds.3 mph94%29.80 "Hg15 mi
8:00 PM64 °FBroken clouds.No wind94%29.80 "Hg15 mi
7:00 PM64 °FBroken clouds.7 mph94%29.79 "Hg15 mi
6:00 PM66 °FPartly sunny.8 mph88%29.79 "Hg15 mi
5:00 PM64 °FMore clouds than sun.7 mph100%29.79 "Hg15 mi
4:52 PM64 °FMore clouds than sun.9 mph100%29.79 "Hg15 mi
4:00 PM64 °FSprinkles. More clouds than sun.8 mph100%29.80 "Hg10 mi
3:00 PM64 °FSprinkles. Mostly cloudy.8 mph100%29.80 "Hg8 mi
2:00 PM63 °FSprinkles. Mostly cloudy.8 mph100%29.79 "Hg8 mi
1:00 PM63 °FMostly cloudy.8 mph100%29.80 "Hg15 mi
12:00 PM63 °FSprinkles. Fog.10 mph100%29.80 "Hg4 mi
11:00 AM63 °FSprinkles. More clouds than sun.13 mph100%29.80 "Hg10 mi
10:00 AM63 °FSprinkles. Fog.9 mph100%29.80 "Hg5 mi
9:00 AM61 °FRain showers. Fog.3 mph100%29.80 "Hg3 mi
8:04 AM59 °FRain showers. Fog.No wind100%29.79 "Hg2 mi
8:00 AM59 °FSprinkles. Fog.No wind100%29.79 "Hg2 mi
7:48 AM59 °FSprinkles. Fog.2 mph100%29.79 "Hg1 mi
7:00 AM59 °FSprinkles. Fog.6 mph100%29.78 "Hg0 mi
6:00 AM59 °FFog.2 mph100%29.75 "Hg2 mi
Weather by CustomWeather, © 2014

See weather overviewHow to use our weather pages